Regional Weather Roundup
Issued by NWS Boston, MA

Home | Current Version | Previous Version | Text Only | Print | Product List | Glossary On
Versions: 1 2 3 4 5 6 7 8 9 10 11 12 13 14 15 16 17 18 19 20 21 22 23 24 25 26 27 28 29 30 31 32 33 34 35 36 37 38 39 40 41 42 43 44 45 46 47 48
000
ASUS41 KBOX 281410
RWRBOX

REGIONAL WEATHER ROUNDUP
NATIONAL WEATHER SERVICE TAUNTON MA
1000 AM EDT THU MAY 28 2015

NOTE:  "FAIR" INDICATES FEW OR NO CLOUDS BELOW 12,000 FEET WITH NO
SIGNIFICANT WEATHER AND/OR OBSTRUCTIONS TO VISIBILITY.  THE FOLLOWING
OBSERVATION LOCATIONS DO NOT REPORT PRESENT WEATHER...PROVINCETOWN...
SMITHFIELD...BLOCK ISLAND...KEENE...AND OXFORD.

MAZALL-281500-
EASTERN MASSACHUSETTS

CITY           SKY/WX    TMP DP  RH WIND       PRES   REMARKS
BOSTON         PTSUNNY   73  63  70 S12       30.13F
BEVERLY        PTSUNNY   74  64  71 S9        30.12F
LAWRENCE       PTSUNNY   77  65  66 SW9       30.13F
BEDFORD        PTSUNNY   78  65  63 S10       30.11F
BLUE HILL        N/A     70  63  78 S14       30.15S
NORWOOD        PTSUNNY   73  64  73 S12       30.14F
MARSHFIELD     MOSUNNY   75  64  69 SW12G21   30.17S
PLYMOUTH       MOSUNNY   71  62  73 SW16G25   30.18S
TAUNTON        MOSUNNY   73  62  68 VRB7      30.17F
NEW BEDFORD    CLOUDY    69  62  78 SW15G25   30.18F
$$

MAZALL-281500-
CAPE COD AND THE ISLANDS

CITY           SKY/WX    TMP DP  RH WIND       PRES   REMARKS
FALMOUTH       CLOUDY    68  63  83 SW21      30.21S
HYANNIS        CLOUDY    67  61  81 SW15      30.20R
CHATHAM        CLOUDY    64  60  87 SW15G22   30.22S
PROVINCETOWN   MOSUNNY   66  59  77 SW16G25   30.18S
NANTUCKET      CLOUDY    64  58  80 S16       30.24R
MARTHAS VNYRD  CLOUDY    66  60  81 SW12      30.22S
$$

MAZALL-281500-
CENTRAL AND WESTERN MASSACHUSETTS

CITY           SKY/WX    TMP DP  RH WIND       PRES   REMARKS
WORCESTER      MOSUNNY   75  64  68 SW12      30.16S
FITCHBURG      MOSUNNY   80  65  59 S10       30.12F
ORANGE         CLOUDY    68  65  90 S6        30.13F
SPRINGFIELD    PTSUNNY   74  67  78 S13       30.12F
WESTFIELD      CLOUDY    72  66  81 S12       30.13S
NORTH ADAMS    MOSUNNY   78  65  63 VRB6      30.10F
PITTSFIELD     PTSUNNY   73  66  78 VRB6      30.13S
$$

RIZALL-281500-
RHODE ISLAND

CITY           SKY/WX    TMP DP  RH WIND       PRES   REMARKS
PROVIDENCE     PTSUNNY   72  62  71 S12       30.18F
NEWPORT        CLOUDY    64  60  87 S13G24    30.19F
BLOCK ISLAND   CLOUDY    61  57  88 SW17      30.22S
SMITHFIELD     PTSUNNY  N/A N/A N/A SW8       30.17S
WESTERLY       CLOUDY    63  58  83 S7        30.20F
$$

CTZALL-281500-
CONNECTICUT

CITY           SKY/WX    TMP DP  RH WIND       PRES   REMARKS
BRADLEY INTL   CLOUDY    71  65  81 S10       30.15S
HARTFORD       CLOUDY    69  65  86 S8        30.16S
BRIDGEPORT     CLOUDY    66  62  87 SW6       30.18S FOG
DANBURY        CLOUDY    72  65  78 SW9       30.18S
GROTON         CLOUDY    62  58  86 S3        30.19F
NEW HAVEN      CLOUDY    65  62  90 SE5       30.18S FOG
CHESTER        NOT AVBL
MERIDEN        CLOUDY    69  62  78 VRB7      30.17S
WILLIMANTIC    CLOUDY    69  63  81 S8        30.18S
OXFORD         CLOUDY    68  63  83 SW7       30.19S VSB 3/4
$$

MEZ002-015-021-024-NHZ003-005-008-011-012-014-VTZ005-008-281500-
NORTHERN NEW ENGLAND

CITY           SKY/WX    TMP DP  RH WIND       PRES   REMARKS
PORTLAND ME    MOSUNNY   76  64  66 S9        30.08F
BANGOR ME      MOSUNNY   72  63  73 S10       30.05F
CONCORD NH     MOSUNNY   78  65  63 SW9       30.09F
MANCHESTER NH  PTSUNNY   78  65  63 SW8       30.09F
NASHUA NH      MOSUNNY   78  67  68 VRB6      30.11F
PORTSMOUTH NH  PTSUNNY   78  65  66 SW7       30.08F
JAFFREY NH     SUNNY     72  64  76 SW8G18    30.14S
KEENE NH       PTSUNNY   73  64  73 S8        30.11F
BURLINGTON VT  CLOUDY    73  66  78 S7        30.05F
MT. WASHINGTON FOG       52  52 100 W32         N/A  VSB 1/16
$$

NYZ052-076-281500-
EASTERN NEW YORK

CITY           SKY/WX    TMP DP  RH WIND       PRES   REMARKS
ALBANY         PTSUNNY   74  65  73 S12       30.11R
NEW YORK CITY  PTSUNNY   71  63  75 S8        30.17S
$$

ANZALL-281500-
MARINE OBSERVATIONS

STATION/POSITION TIME  TEMP    WIND        PRES    VSBY  WAVE
                       AIR SEA DIR/SP/G                  HT/PER
                 (UTC) (F)     (DEG/KT/KT) (MB)    (MI)  (FT/S)
BOSTON BUOY      1350   58 54  210/  8/ 10   N/A           2/ 5
BUZZARDS BAY     1400          230/ 13/ 14   N/A
NANTUCKET SOUND  1350   62 60  210/ 16/ 19   N/A           2/ 3
MASS BAY-STELLWA 1304   54 49  200/  8/ 10   N/A    1 1/2  2/ 5
ISLE OF SHOALS   1400   65     190/ 16/ 16   N/A
S OF BLOCK IS    1308      55                N/A           4/ 6
$$

......................KEY.........................
  SKY/WX - SKY CONDITION/PRESENT WEATHER
  TMP    - TEMPERATURE IN FAHRENHEIT
  DWPT   - DEWPOINT IN FAHRENHEIT
  RH     - RELATIVE HUMIDITY IN PERCENT
  WIND   - DIRECTION AND SPEED IN MPH
  PRES   - MEAN SEA LEVEL PRESSURE IN INCHES OF HG
  WCI    - WIND CHILL INDEX
  VSB    - VISIBILITY IN MILES
  HX     - HEAT INDEX
  TC     - TEMPERATURE IN CELSIUS
  VRB    - VARIABLE WIND DIRECTION
  N/A    - NOT AVAILABLE



USA.gov is the U.S. government's official web portal to all federal, state and local government web resources and services.